Snowfall_Accumulation
0.0 0.0 0.0 0.0 0.0 0.0 0.0 0.0 0.4 0.5 0.0 0.0 0.0 0.0 0.0 0.0 0.0 0.0 0.0 0.0 0.0 0.0 0.0 0.0 0.0 0.0 0.0 0.0 0.0 0.0 0.0 0.0 0.0 0.0 0.0 0.0 0.0 0.0
0.0 0.0 0.0 0.0 0.0 0.0 0.0 0.0 0.0 0.0 0.0 0.0 0.0 0.0 0.0 0.0 0.0 0.0 0.0 0.0 0.0 0.0 0.0 0.0 0.0 0.0 0.0 0.0 0.0 0.0 0.0 0.0 0.0 0.0 0.0 0.0 0.0 0.0
0.0 0.0 0.0 0.0 0.0 0.0 0.0 0.0 0.0 0.0 0.1 0.0 0.0 0.0 0.0 0.0 0.0 0.0 0.0 0.0 0.0 0.0 0.0 0.0 0.0 0.0 0.0 0.0 0.0 0.0 0.0 0.0 0.0 0.0 0.0 0.0 0.0 0.0
0.0 0.0 0.0 0.0 0.0 0.0 0.0 0.0 0.0 0.0 0.0 0.0 0.0 0.0 0.0 0.0 0.0 0.0 0.0 0.0 0.0 0.0 0.0 0.0 0.0 0.0 0.0 0.0 0.0 0.0 0.0 0.0 0.0 0.0 0.0 0.0 0.0 0.0
0.0 0.0 0.0 0.0 0.0 0.0 0.0 0.0 0.0 0.0 0.0 0.0 0.0 0.0 0.0 0.0 0.0 0.0 0.0 0.0 0.0 0.0 0.0 0.0 0.0 0.0 0.0 0.0 0.0 0.0 0.0 0.0 0.0 0.0 0.0 0.0 0.0 0.0
0.0 0.0 0.0 0.0 0.0 0.0 0.0 0.0 0.0 0.0 0.0 0.0 0.0 0.0 0.0 0.0 0.0 0.0 0.0 0.0 0.0 0.0 0.0 0.0 0.0 0.0 0.0 0.0 0.0 0.0 0.0 0.0 0.0 0.0 0.0 0.0 0.0 0.0
0.0 0.0 0.0 0.0 0.0 0.0 0.0 0.0 0.0 0.0 0.0 0.1 0.1 0.0 0.0 0.0 0.0 0.0 0.0 0.0 0.0 0.0 0.0 0.0 0.0 0.0 0.0 0.0 0.0 0.0 0.0 0.0 0.0 0.0 0.0 0.0 0.0 0.0
0.0 0.0 0.0 0.0 0.0 0.0 0.0 0.0 0.0 0.1 0.3 0.4 0.3 0.2 0.0 0.0 0.1 0.1 0.1 0.2 0.1 0.0 0.0 0.0 0.0 0.0 0.0 0.0 0.0 0.0 0.0 0.0 0.0 0.0 0.0 0.0 0.0 0.0
0.0 0.0 0.0 0.0 0.0 0.0 0.0 0.0 0.0 0.0 0.1 0.2 0.7 0.3 0.1 0.0 0.0 0.1 0.1 0.2 0.1 0.0 0.1 0.1 0.0 0.0 0.0 0.0 0.0 0.0 0.0 0.0 0.0 0.0 0.0 0.0 0.0 0.0
0.0 0.0 0.0 0.0 0.0 0.0 0.2 0.5 0.2 0.1 0.0 0.1 0.2 0.1 0.0 0.0 0.0 0.1 0.3 0.4 0.2 0.0 0.1 0.7 1.5 0.0 0.3 0.0 0.0 0.0 0.0 0.0 0.0 0.0 0.0 0.0 0.0 0.0
0.0 0.0 0.2 0.2 0.0 0.1 1.4 3.0 1.2 0.2 0.0 0.0 0.1 0.0 0.0 0.0 0.0 0.4 1.9 2.5 1.7 0.4 0.0 0.5 0.2 1.5 2.7 3.9 3.2 0.0 0.0 0.0 0.0 0.0 0.0 0.0 0.0 0.1
0.1 0.0 0.1 0.0 0.3 0.4 2.9 3.9 3.7 0.5 0.1 0.1 0.1 0.0 0.0 0.1 0.1 1.1 1.6 2.3 1.7 1.2 0.2 0.3 0.1 1.1 3.7 4.0 3.8 3.3 3.3 2.1 0.0 0.0 0.0 0.4 0.2 0.0
0.7 0.3 0.2 1.0 1.8 0.7 0.8 2.8 1.8 0.3 0.1 0.5 0.6 0.3 0.1 0.1 0.0 0.0 0.4 1.6 2.1 1.1 0.0 0.3 0.4 0.9 1.4 2.8 3.4 3.4 4.0 5.5 1.7 1.1 0.5 0.2 0.1 0.0
2.3 1.3 1.6 0.5 0.7 0.8 0.2 1.5 0.8 1.3 2.1 2.5 2.1 1.2 1.2 0.6 0.3 0.2 0.1 0.2 0.2 0.3 0.0 0.4 1.0 0.2 0.9 2.6 3.1 3.8 4.0 5.2 5.0 5.2 4.8 3.3 2.2 1.7
2.0 2.1 0.9 0.7 0.4 0.3 0.4 1.0 1.2 2.6 3.4 3.0 1.9 0.8 0.4 0.1 0.4 0.6 0.6 0.4 0.6 0.3 0.6 0.4 0.7 0.0 0.7 1.3 1.4 2.5 4.7 6.5 5.8 6.1 6.8 7.8 7.8 5.9
1.2 1.1 1.2 1.0 0.9 1.5 1.8 1.7 3.1 3.9 3.6 2.9 1.6 0.8 0.8 1.3 1.4 0.7 1.6 1.7 3.3 2.2 1.7 0.6 0.4 0.5 2.1 0.8 0.5 1.9 2.2 4.2 5.5 5.9 7.1 8.3 8.0 6.1
1.7 1.9 1.4 0.7 0.8 0.8 0.9 0.5 0.9 0.9 1.6 1.7 1.4 1.0 1.7 0.8 1.3 1.4 1.6 1.4 3.6 2.3 1.8 1.8 2.1 2.6 2.2 1.0 2.3 1.7 1.8 2.5 3.4 4.3 6.3 7.7 7.9 8.5
2.1 2.1 1.9 1.7 1.8 1.7 2.0 1.9 1.0 0.6 0.8 0.5 0.6 1.1 1.6 1.8 1.0 0.9 1.1 2.0 1.6 2.7 2.4 1.6 3.0 5.2 5.2 4.0 1.2 0.9 1.8 2.1 2.7 3.0 4.5 5.3 5.9 5.6
1.9 2.2 2.3 2.8 2.5 1.9 1.9 2.2 2.7 2.5 1.4 0.9 1.2 2.0 0.8 1.7 2.6 1.2 1.8 3.4 3.4 2.2 3.0 3.0 3.5 3.8 5.0 3.5 2.8 1.7 1.7 1.1 2.6 4.0 4.2 4.4 3.5 4.0
1.9 2.6 2.8 2.5 2.4 1.5 1.2 1.7 1.6 2.1 1.8 1.9 2.2 1.6 1.2 0.7 0.9 1.3 1.7 1.9 2.1 2.2 1.9 2.2 2.7 2.5 3.6 3.8 4.7 4.0 2.3 2.1 2.3 2.8 4.5 5.9 5.4 5.4
2.3 2.4 2.7 2.3 1.6 1.5 1.5 1.5 1.7 1.6 2.0 2.1 2.3 2.1 1.4 1.1 0.8 0.6 0.7 0.5 0.8 1.3 2.2 2.4 2.3 2.0 1.4 2.8 4.1 4.7 5.3 2.7 1.9 2.3 3.0 5.0 4.2 4.6
2.6 2.4 2.1 1.9 1.5 1.2 0.9 1.0 0.7 1.2 1.1 0.8 1.3 1.3 1.9 1.6 1.2 1.3 1.2 1.1 1.6 1.5 1.2 1.5 1.8 1.0 0.8 0.7 1.6 1.7 3.2 5.1 3.2 1.9 2.2 2.2 2.3 3.0
2.1 2.0 1.6 1.1 0.8 0.7 0.8 0.8 0.6 0.8 1.1 0.9 1.0 1.4 1.9 2.1 2.3 1.8 1.3 0.8 0.6 0.8 0.9 1.3 1.7 0.7 0.5 0.5 1.1 1.2 1.5 2.6 3.1 1.5 1.6 1.8 1.2 0.9